Wind_Speed
30 32 34 34 34 35 35 33 30 28 24 18 13 11 11 15 18 21 23 23 23 23 24 26 27 28 27 27 26 26 26 26 25 25 24 25 25 27 29 31 33 34 35 35 36 36 36 36 35 35 35 35 35 35 34 33 33 32 32 32 32 33 34 35 37 38 38 38 37 37 36 36 35 36 36 35 33 32 33 34 35 37 38 38 38 37
29 31 33 34 35 35 35 34 32 30 27 23 18 14 12 13 17 20 23 24 25 26 27 28 29 29 29 28 28 28 28 27 26 25 24 24 25 26 28 31 33 34 35 36 36 36 36 35 35 35 35 35 35 36 36 35 35 34 34 33 33 33 33 34 36 37 38 39 38 37 37 36 35 35 35 34 32 32 34 35 38 40 41 40 39 37
27 29 32 32 32 31 32 33 33 31 29 26 22 17 13 13 14 17 21 24 26 28 29 30 30 30 30 29 29 29 29 29 28 26 25 24 25 26 28 30 32 34 35 36 36 36 36 35 35 35 35 35 35 36 36 36 36 36 35 35 34 33 33 34 35 36 37 38 38 37 36 36 35 35 35 34 33 33 35 38 41 43 43 41 39 37
28 29 30 30 29 29 30 31 31 30 28 27 23 19 15 14 14 15 18 22 26 29 31 32 32 31 31 30 30 31 31 30 29 27 26 25 25 26 27 29 31 33 35 36 37 37 36 36 36 35 35 35 36 36 37 37 37 37 36 36 35 34 33 34 34 35 36 37 38 37 35 35 35 36 35 34 34 35 36 38 42 44 44 42 39 37
28 29 28 28 28 29 31 31 30 28 28 27 25 21 18 16 17 17 18 20 24 28 31 33 33 32 31 31 31 32 32 31 30 29 27 26 26 26 27 29 31 33 35 36 37 37 37 37 36 35 35 35 36 36 37 37 37 37 37 37 36 35 34 34 34 34 35 36 37 35 33 34 36 35 35 35 36 36 36 38 41 43 43 41 38 37
29 28 27 27 27 29 31 31 30 28 28 28 27 23 20 19 19 19 18 17 20 25 29 31 31 30 29 30 32 33 33 32 31 30 29 28 27 27 28 29 31 32 34 36 37 38 38 38 37 36 35 34 35 36 37 38 38 38 38 37 37 36 35 35 34 34 34 36 37 36 34 35 36 35 35 36 36 36 36 39 41 43 42 40 38 38
28 27 26 27 28 30 31 31 31 30 28 27 26 23 20 19 20 21 20 17 17 21 25 27 26 25 25 28 32 33 33 33 32 31 30 29 29 29 29 29 31 32 34 36 37 38 39 39 38 36 35 34 34 35 36 37 38 38 38 37 37 36 36 36 35 34 34 36 37 38 36 36 36 36 36 37 37 36 37 40 42 43 41 39 39 39
26 24 24 26 28 30 32 33 32 31 29 26 23 20 20 20 21 22 22 19 17 17 18 19 19 18 21 26 30 33 33 33 33 32 31 31 30 30 30 30 31 32 34 36 37 38 39 39 39 38 36 35 35 35 36 36 37 38 37 37 36 36 36 36 34 33 34 35 36 36 35 34 36 38 39 38 37 36 38 41 43 43 41 40 40 40
25 23 22 24 26 28 30 31 31 30 27 23 21 20 21 21 21 21 22 21 18 15 13 13 13 15 19 24 28 31 31 32 32 32 32 32 32 32 31 31 31 32 34 36 37 38 39 40 40 39 38 37 36 36 36 37 37 37 36 35 35 36 36 36 35 34 33 34 34 32 31 33 37 40 40 39 37 37 40 43 44 43 42 41 41 41
27 24 22 22 23 25 26 28 28 26 23 21 20 20 22 22 22 22 22 22 20 17 13 12 12 14 18 22 25 28 29 30 31 32 33 33 33 33 32 32 32 32 33 35 37 38 39 40 40 40 39 38 37 36 37 37 38 37 34 32 32 33 35 35 36 35 34 33 31 29 28 34 39 42 41 38 37 39 42 45 45 44 44 43 43 43
29 27 24 22 21 21 23 25 25 23 19 19 19 20 22 23 23 22 22 23 22 19 15 12 12 14 17 20 23 25 26 27 29 31 32 33 33 33 33 33 32 32 33 34 36 38 39 40 40 40 40 39 38 37 37 37 38 36 34 31 30 30 33 35 36 37 36 33 30 29 31 37 43 44 42 40 39 41 45 46 46 45 45 45 44 43
26 25 24 23 21 21 22 24 23 20 17 17 18 20 22 23 22 22 22 22 22 20 17 14 12 12 15 18 21 23 24 25 27 29 31 32 33 33 33 33 32 32 33 34 35 37 38 39 40 40 40 39 38 37 37 37 37 36 34 32 30 30 32 35 37 38 37 34 31 31 36 42 47 48 45 43 43 44 47 47 46 45 45 45 44 43
20 21 21 21 21 22 23 23 22 19 18 17 18 20 22 22 21 21 21 22 22 20 18 15 13 12 13 17 20 22 24 26 28 29 30 31 31 32 32 32 32 33 33 34 35 36 37 38 39 39 39 38 38 37 36 36 35 35 34 33 32 31 32 35 37 38 36 33 32 35 41 47 51 51 48 46 46 47 48 46 45 44 44 44 43 41
19 19 18 17 17 19 20 20 21 22 21 20 19 19 20 19 20 21 22 24 24 22 19 16 14 13 13 16 20 23 25 27 28 29 29 29 30 30 30 31 31 32 33 34 35 36 37 37 38 38 38 37 36 36 35 34 34 34 34 33 32 32 32 35 38 38 35 33 34 39 46 51 52 50 47 47 47 48 47 46 44 43 43 42 40 39
17 17 15 12 10 10 12 14 18 21 22 21 19 18 18 18 18 20 22 24 25 23 21 18 16 14 13 16 21 24 26 27 28 28 28 28 28 28 28 28 29 30 32 34 35 36 36 36 37 38 37 36 35 35 34 33 33 33 33 33 32 32 32 35 38 38 35 34 37 44 50 53 51 47 45 45 45 45 44 45 44 42 41 39 38 37
14 14 11 8 6 5 8 12 16 19 21 20 19 18 19 18 18 17 18 21 23 23 21 20 18 16 14 17 22 25 27 28 28 28 27 26 26 27 26 26 26 27 30 32 34 35 35 36 37 38 37 36 35 34 34 33 32 32 32 32 32 32 33 36 38 38 36 37 42 49 54 54 50 46 43 42 42 42 42 42 42 41 39 37 36 36
9 9 9 8 7 6 8 10 12 16 19 20 20 20 21 20 17 15 14 17 19 21 22 21 20 18 16 18 22 26 27 28 28 28 27 26 26 26 25 24 25 26 27 30 32 34 35 36 37 37 37 36 35 34 33 32 32 32 31 31 32 33 34 37 38 37 38 41 47 52 54 52 47 44 42 40 40 39 39 40 39 39 37 36 35 35
5 5 6 6 6 5 5 6 9 13 17 19 21 22 23 21 18 16 15 16 18 19 21 22 21 19 17 17 21 25 27 28 28 28 27 26 26 26 26 25 25 26 26 28 30 32 33 35 36 37 37 36 34 33 32 32 31 31 31 32 33 34 35 37 38 38 40 45 50 53 52 48 44 41 40 39 39 38 38 38 38 37 37 36 35 34
3 2 2 2 2 3 3 5 7 10 14 17 20 22 23 22 21 20 19 18 18 19 21 21 21 19 16 17 21 24 26 28 29 29 27 26 27 29 29 28 27 27 27 28 29 31 32 33 35 36 36 35 33 31 31 31 31 31 32 33 35 36 37 38 38 41 45 49 51 51 47 44 41 39 38 38 38 38 38 38 38 37 36 35 34 33
6 4 2 2 1 1 3 6 10 12 13 16 19 21 22 22 22 21 20 18 17 18 20 20 20 19 17 17 20 24 26 28 29 30 29 28 29 30 30 30 30 30 30 30 31 31 32 32 32 33 33 32 31 30 30 31 32 33 34 36 38 39 39 40 41 45 49 51 50 47 43 41 39 39 39 39 39 38 38 38 37 37 36 34 33 31
9 7 4 2 1 1 2 6 11 14 14 15 17 19 21 22 21 20 19 18 17 18 19 19 19 18 17 16 20 24 25 27 29 31 31 30 30 30 30 31 32 33 33 33 33 33 33 32 31 31 31 30 30 31 32 33 35 37 38 39 40 41 41 43 45 48 49 48 45 42 40 39 39 39 39 39 38 38 38 37 36 35 34 32 31 29
10 8 5 3 2 2 2 6 11 15 16 16 17 19 20 21 20 20 19 18 18 18 19 19 19 19 18 17 21 25 25 24 26 30 31 30 29 29 30 31 33 36 37 36 36 36 35 34 33 32 32 31 32 33 36 38 39 41 42 42 42 42 43 44 45 46 45 42 40 39 39 39 39 39 38 38 37 37 36 36 35 33 32 30 29 28
7 7 6 5 4 3 2 5 10 14 17 18 19 20 20 20 20 20 20 19 19 18 17 18 18 18 17 18 22 26 26 24 24 25 28 28 28 28 31 33 35 38 40 38 38 38 38 37 37 37 36 36 36 38 41 43 44 44 45 44 44 43 43 44 44 43 42 40 39 39 40 40 39 39 39 38 37 36 35 34 32 31 29 28 27 26
6 5 5 5 4 3 3 4 7 12 16 18 20 20 20 21 21 20 20 19 18 17 16 17 17 17 17 19 23 28 29 27 25 25 27 29 30 30 32 35 38 40 41 40 41 41 41 43 44 45 44 42 42 43 46 46 47 47 47 46 45 44 44 44 44 43 43 42 42 42 42 41 41 40 40 40 39 38 36 34 32 30 29 28 27 26
5 4 3 3 3 3 3 4 7 10 14 17 19 20 20 21 21 20 20 19 18 18 17 17 17 18 18 20 23 28 31 30 29 28 30 32 32 32 34 37 40 42 43 44 45 46 47 49 50 50 49 47 47 47 48 48 48 48 47 47 46 46 45 45 45 45 45 44 44 44 43 42 41 41 40 40 40 39 38 35 33 32 30 29 28 27
3 3 2 1 0 1 3 4 6 9 13 16 18 19 20 21 21 21 20 20 20 20 18 18 19 20 20 21 23 26 30 32 32 31 31 32 32 32 33 37 41 44 46 48 50 52 54 55 55 54 53 52 51 51 50 49 48 48 48 48 48 47 47 46 46 46 45 45 44 43 42 41 40 38 37 36 36 36 35 34 33 32 32 31 31 30
2 2 2 2 2 2 2 3 5 7 11 14 16 18 19 20 21 21 22 22 23 22 20 20 21 22 22 23 23 25 27 30 32 33 32 31 31 31 33 38 43 47 50 51 53 55 56 56 55 55 55 54 53 52 51 50 49 48 48 48 48 48 47 46 46 45 44 43 42 41 40 38 37 36 35 35 34 34 34 34 34 34 34 34 33 32
1 1 2 3 3 3 3 4 4 5 7 11 13 16 17 18 20 21 23 24 25 24 22 23 24 26 26 26 25 23 23 26 29 33 35 33 32 32 36 41 47 51 51 50 50 52 53 51 51 51 51 51 50 49 49 48 48 47 47 47 46 46 45 45 44 42 41 41 40 39 38 38 37 37 37 37 37 37 37 37 36 36 36 35 34 33
1 1 2 3 3 3 4 4 3 3 4 7 10 13 15 17 19 21 23 24 26 26 24 24 26 28 29 30 27 23 20 24 29 34 36 37 35 34 38 43 48 50 50 48 48 48 48 46 45 44 44 45 44 44 44 44 45 44 44 44 43 43 42 42 41 40 40 40 39 39 39 39 39 39 39 39 38 38 37 37 36 35 35 34 34 33
4 3 3 3 3 3 4 4 3 3 3 4 7 10 13 17 20 22 23 25 27 28 26 26 27 30 31 32 30 24 19 22 29 36 38 38 37 37 38 41 45 46 47 45 44 43 42 41 40 40 40 41 41 41 41 42 43 43 43 43 43 42 42 42 42 41 41 41 41 41 40 40 39 39 38 37 37 36 35 35 34 34 33 32 32 31
8 8 7 6 5 4 4 5 5 4 4 4 5 8 12 16 20 23 25 27 29 29 26 26 28 31 33 34 32 27 21 20 27 36 39 38 40 41 40 39 40 43 45 44 41 38 35 35 36 36 37 39 40 41 41 42 43 44 44 45 45 44 44 44 43 43 42 41 40 40 39 38 37 36 35 34 33 32 32 31 31 30 30 30 29 29
13 12 11 10 8 7 7 6 6 5 5 4 5 8 11 15 19 24 27 29 30 29 26 26 27 30 33 34 34 31 24 21 26 34 37 38 41 45 44 41 39 39 41 42 41 38 34 33 32 32 33 35 38 39 40 41 42 43 44 44 44 43 43 42 42 41 40 39 38 37 36 35 34 33 32 31 30 29 28 28 27 27 26 26 26 26
16 16 15 13 12 11 10 9 8 7 6 5 6 8 11 14 19 23 26 27 28 28 27 27 28 30 32 34 35 33 28 24 26 32 37 38 41 45 47 45 41 38 37 38 40 41 39 38 36 33 32 32 34 36 37 38 39 40 42 42 42 41 40 40 39 38 37 36 35 34 33 32 31 30 29 29 28 27 27 26 25 25 25 25 25 25
18 18 17 16 16 15 14 13 12 11 9 9 8 9 11 14 19 22 24 26 27 28 28 29 30 31 31 33 35 34 30 27 28 32 37 39 40 42 47 46 43 41 38 37 38 40 41 42 42 39 35 33 33 34 35 37 38 39 40 40 40 39 39 38 38 37 36 35 35 34 33 32 31 30 30 29 28 28 27 26 25 24 24 24 24 24
20 20 19 18 18 18 17 16 15 15 14 13 12 12 12 15 18 21 24 26 27 28 29 30 31 32 32 34 36 36 33 30 30 33 38 39 40 42 47 46 45 44 42 42 42 42 43 45 45 44 42 40 37 36 36 37 38 39 39 39 39 39 39 38 38 38 37 37 36 35 35 34 33 32 31 30 30 29 28 27 26 25 24 23 22 21
23 23 22 21 21 20 19 19 18 18 17 17 16 15 14 16 18 21 23 25 26 27 28 29 31 33 34 36 38 38 36 33 31 33 36 39 41 44 45 47 48 48 48 47 47 47 48 49 49 48 49 47 44 42 40 39 39 39 39 39 39 39 39 38 38 38 38 37 37 36 36 35 34 34 33 32 31 30 30 29 28 26 25 23 21 20
25 25 25 24 23 22 21 20 19 19 19 19 19 18 17 17 18 20 22 24 25 26 27 29 31 33 35 37 39 40 39 36 34 33 34 38 43 46 48 49 50 52 53 53 53 54 55 54 52 51 51 51 49 47 46 44 42 41 41 40 39 39 38 38 37 37 37 36 36 36 35 35 35 34 34 33 32 31 30 29 28 27 25 23 22 20
27 27 26 26 25 23 22 21 20 20 19 20 20 19 19 19 19 20 22 24 24 24 25 27 30 33 35 38 40 42 41 40 37 33 32 36 43 48 51 52 53 54 56 57 58 60 60 58 56 53 51 51 51 50 50 48 46 44 43 41 40 39 38 37 36 36 35 35 35 35 35 34 34 33 33 33 32 31 30 28 27 25 24 23 22 20
27 27 27 27 26 25 23 22 20 19 18 18 18 18 19 20 20 21 23 24 25 24 24 25 28 31 35 38 40 42 43 42 39 35 33 36 42 48 53 55 56 56 58 59 61 62 62 61 59 57 54 53 53 52 51 50 48 47 45 42 40 38 37 36 35 35 34 34 34 34 34 33 32 31 31 30 29 28 27 26 25 24 23 22 21 20
27 27 27 27 25 24 23 21 19 17 16 15 15 16 17 20 21 22 23 24 25 25 24 24 26 30 34 37 39 40 41 41 39 37 35 36 40 47 53 57 58 59 59 60 61 61 62 61 60 59 58 57 56 54 52 51 49 47 46 44 43 40 38 36 35 34 33 33 33 33 33 32 31 30 29 28 27 26 25 24 23 23 22 21 20 19
27 27 27 26 25 24 23 21 19 17 15 14 13 14 16 19 22 23 23 24 25 25 24 23 25 29 33 35 36 36 37 37 36 36 35 36 40 45 51 56 59 61 62 61 61 60 60 60 59 58 58 58 57 55 53 51 49 47 46 46 44 42 39 37 36 34 33 33 32 32 31 31 30 29 28 27 26 25 24 23 23 22 21 20 19 18
27 26 26 25 25 24 22 20 18 17 15 14 14 14 14 17 20 22 24 24 25 25 24 23 24 27 30 31 31 31 32 32 33 33 35 36 40 44 49 54 58 61 63 63 61 59 58 58 58 58 58 58 57 55 53 52 49 47 46 45 45 43 41 39 37 35 34 34 32 31 31 30 30 29 28 27 26 25 24 23 22 22 21 20 19 18
26 26 25 25 25 24 22 21 19 18 16 15 15 15 14 15 18 21 23 25 26 25 25 24 24 26 28 28 28 28 28 29 30 32 34 36 40 43 48 52 56 60 62 63 61 59 57 57 57 57 57 57 57 56 53 52 49 47 45 44 44 44 42 40 38 37 35 34 33 32 31 30 30 29 28 27 27 26 25 24 22 21 20 19 18 17
25 25 25 25 24 23 23 22 21 19 18 17 17 17 16 15 16 19 22 25 26 27 26 25 24 25 27 28 28 28 28 29 30 31 33 35 38 42 46 50 53 57 60 62 61 59 57 56 55 54 55 55 56 55 54 52 49 47 44 43 43 43 42 41 39 38 36 35 33 32 31 30 30 29 28 27 26 25 24 23 22 21 20 18 17 16
24 24 24 25 25 25 25 24 23 21 19 18 18 18 18 17 16 18 21 24 26 28 27 26 25 25 27 28 29 30 31 31 32 32 33 35 37 41 45 48 50 53 55 57 58 57 56 54 53 52 53 53 52 52 52 50 49 46 44 43 42 42 41 40 39 37 36 35 33 32 31 30 29 29 28 27 26 25 24 23 22 20 19 18 17 15
23 24 24 25 25 26 26 25 24 22 21 19 19 19 18 18 18 18 20 23 26 27 28 27 27 27 28 28 28 29 31 32 33 34 35 35 37 40 43 46 48 50 50 51 52 53 53 52 51 50 50 49 49 49 48 48 47 46 44 43 42 41 41 39 38 36 35 34 33 32 31 30 29 29 28 27 26 25 24 22 21 20 19 18 17 16
23 23 24 24 25 25 25 25 24 24 22 21 20 19 19 19 19 19 20 22 25 27 28 28 29 30 30 29 28 28 30 31 33 34 35 36 38 40 42 45 47 48 48 48 48 47 47 48 48 48 48 47 46 46 45 46 46 46 44 43 42 41 40 38 37 35 34 33 33 32 31 30 29 28 27 27 26 25 24 23 21 20 19 18 17 16
22 22 23 23 24 24 25 25 25 25 24 22 21 20 19 19 20 20 21 22 24 26 28 30 31 32 32 31 30 30 30 31 32 33 34 35 36 38 40 42 44 46 46 46 46 46 46 45 44 44 45 46 46 45 44 44 45 45 44 43 42 41 40 38 36 35 33 32 32 31 30 29 28 28 27 26 26 25 24 23 22 20 19 18 17 16
21 21 22 22 23 23 24 24 25 25 24 23 22 21 20 20 20 21 23 23 24 26 28 30 31 33 33 33 32 32 32 32 32 33 33 34 34 36 38 40 42 44 45 45 45 46 46 45 44 43 42 43 45 46 46 44 44 44 44 43 42 41 40 38 36 34 33 32 31 30 29 28 27 27 26 26 26 25 24 23 21 20 19 17 16 15
21 21 21 21 22 22 23 23 23 24 24 23 23 22 21 21 21 22 23 24 25 27 28 29 30 31 32 33 33 33 33 33 33 33 33 33 34 34 36 38 41 43 44 44 44 44 44 43 42 41 40 39 40 43 44 44 43 42 41 41 40 39 39 37 35 34 32 31 30 30 29 28 27 26 26 26 26 25 24 22 21 19 17 16 15 14
20 20 20 21 21 21 22 22 22 22 23 23 22 22 22 22 22 22 23 25 26 27 28 28 29 30 31 31 32 33 34 34 34 34 34 34 34 34 35 36 39 41 43 43 42 42 42 40 38 35 34 35 36 37 39 41 40 39 38 37 37 37 36 36 35 33 32 31 30 29 29 28 27 26 25 24 23 23 22 20 19 17 16 15 14 13
Wind_Direction
262 260 258 257 260 261 260 258 260 264 267 264 259 253 242 230 224 223 224 226 226 224 222 223 225 227 231 234 238 241 241 239 235 231 227 226 226 226 226 226 225 224 223 221 220 220 220 220 220 219 218 215 214 214 215 215 213 212 212 213 213 213 213 209 203 199 198 202 206 209 209 208 207 206 204 203 203 204 205 203 201 198 197 199 201 202
266 265 263 262 263 265 265 261 261 264 267 266 264 258 246 235 227 226 227 228 228 227 225 225 226 228 231 234 237 239 241 240 237 232 228 225 225 225 225 225 224 224 223 222 221 220 220 220 220 219 218 216 214 213 214 214 214 214 214 215 216 216 215 210 204 198 195 198 204 209 210 210 209 206 203 201 201 202 202 200 197 195 195 197 198 199
269 268 266 264 265 266 266 263 262 263 266 266 262 257 252 246 237 232 230 231 230 229 227 227 228 230 232 234 237 239 240 240 238 234 230 226 224 224 225 224 224 223 223 222 222 221 220 219 219 219 218 216 214 214 214 215 214 214 214 215 217 217 216 212 205 198 195 196 201 207 210 211 209 206 202 200 200 200 198 194 192 192 193 195 196 196
269 268 267 266 265 265 264 263 264 265 266 263 258 254 255 261 260 251 240 234 231 230 230 230 230 231 232 235 237 239 240 240 239 236 232 227 224 223 224 224 223 223 222 222 221 221 221 220 219 219 217 216 214 214 214 215 214 214 214 215 216 217 217 212 206 199 196 196 200 206 211 211 208 203 199 198 197 196 194 188 187 189 191 193 194 193
268 266 265 264 264 264 263 262 264 266 265 261 256 255 261 273 276 269 252 238 231 229 230 231 232 232 233 234 236 238 240 240 240 238 234 229 225 223 223 223 223 222 222 221 221 221 221 220 219 218 217 216 215 215 214 215 215 214 215 215 215 216 216 212 205 199 197 197 202 209 213 212 208 202 196 193 193 193 191 186 184 186 189 191 192 191
270 266 262 260 260 261 261 261 263 264 264 260 257 258 266 276 280 275 261 243 230 227 227 229 231 231 232 233 235 236 238 239 239 238 235 231 227 224 222 222 222 222 221 221 221 221 220 220 219 218 217 217 217 216 216 215 214 215 216 215 215 215 215 211 204 199 196 197 203 210 214 212 207 200 192 188 189 192 192 188 186 186 189 190 190 189
272 267 260 256 256 257 259 260 261 263 263 261 260 261 268 274 277 274 266 251 234 224 223 224 226 229 231 233 233 234 235 236 237 237 235 232 228 225 223 222 222 221 221 221 220 220 220 219 218 217 216 217 218 218 217 216 215 216 217 216 215 214 213 209 204 199 196 197 201 206 209 207 202 196 189 186 187 191 193 189 187 188 189 189 187 187
273 267 259 254 254 256 257 258 259 260 260 259 259 262 267 271 272 271 267 257 242 227 221 221 223 228 232 233 233 233 233 234 235 235 233 231 229 226 224 223 222 221 221 220 220 220 219 219 217 216 215 215 217 218 218 217 216 217 218 217 214 212 210 208 204 200 197 197 199 201 201 198 194 191 190 189 190 193 192 187 186 187 188 187 186 186
272 271 264 258 257 257 258 258 258 257 256 253 251 255 261 265 268 269 266 259 249 238 234 233 232 232 233 234 234 233 233 233 233 232 231 229 228 227 226 224 223 222 221 220 219 219 219 218 217 215 214 215 216 217 217 217 217 218 219 216 212 209 207 205 203 202 199 198 198 197 194 190 189 190 192 193 195 193 189 184 184 185 185 185 185 185
268 272 272 267 263 261 260 261 260 256 250 243 243 249 256 261 264 266 265 260 252 247 250 252 247 240 236 236 235 235 234 232 231 229 228 227 227 227 227 226 225 223 221 220 219 219 219 218 217 216 214 215 216 217 217 217 218 219 220 217 212 207 204 202 202 201 200 199 197 195 189 187 189 192 194 196 196 192 186 182 181 182 183 184 185 186
266 272 275 272 267 263 262 263 261 256 244 238 242 249 255 258 261 264 264 261 254 250 253 255 252 246 242 239 237 235 235 234 231 229 227 226 225 226 226 226 226 225 223 221 220 219 219 218 218 216 215 215 216 216 216 217 218 219 220 219 215 209 205 201 200 199 199 198 195 191 187 187 189 192 193 194 194 190 184 181 181 182 183 184 186 187
268 274 276 275 271 266 262 262 259 253 243 242 247 252 253 255 259 261 262 260 256 252 253 253 251 247 245 243 239 236 234 235 234 232 229 227 225 224 224 224 225 224 222 221 220 219 219 218 218 217 216 215 215 216 216 216 217 219 220 220 218 214 208 203 200 197 196 196 193 188 186 186 188 190 190 190 189 187 183 183 183 185 185 185 187 189
265 270 274 276 274 270 266 263 259 252 247 248 250 252 253 255 258 260 258 256 253 251 253 256 254 247 241 242 241 238 235 235 235 235 233 231 228 225 223 222 221 221 220 219 218 218 217 217 217 217 216 216 216 215 215 215 216 218 220 220 220 217 213 206 201 197 196 194 191 187 185 184 185 186 187 188 187 185 184 186 187 187 186 186 188 190
257 261 266 270 271 269 265 263 260 256 252 247 244 245 249 253 256 257 254 252 250 250 252 256 257 250 237 235 237 238 236 235 235 236 236 235 232 228 225 222 220 218 216 216 216 216 216 216 216 216 216 216 216 215 215 215 215 217 219 220 220 219 216 209 202 198 196 193 189 186 184 183 184 186 188 189 187 186 187 188 188 188 187 188 189 192
254 257 258 259 259 256 251 246 245 244 243 238 233 230 234 241 248 251 251 250 250 250 252 255 255 249 235 226 227 231 234 234 234 234 235 236 235 232 228 224 219 216 213 212 213 213 214 214 214 214 215 215 215 215 215 215 215 217 218 219 219 219 217 210 203 199 196 192 189 186 184 184 186 189 192 190 189 189 190 189 187 187 187 189 190 192
250 251 248 238 228 225 228 232 233 232 231 226 219 216 219 224 232 240 245 246 247 248 250 253 254 249 233 216 214 218 225 229 231 231 231 233 234 234 230 226 220 214 210 209 210 211 212 213 213 214 214 214 214 214 214 215 215 217 217 218 218 217 214 209 203 200 197 193 189 186 184 184 187 191 193 190 188 188 189 187 186 185 187 189 190 191
234 239 236 222 213 213 220 223 222 220 217 212 207 206 209 212 215 222 231 237 240 242 244 247 250 247 232 209 202 206 214 220 225 227 227 227 229 231 230 227 222 215 209 207 208 209 211 212 213 213 213 213 213 213 213 214 216 216 217 216 215 212 209 205 202 200 200 195 189 185 183 184 188 191 191 188 186 184 184 182 182 183 185 187 188 188
197 213 212 207 209 214 222 223 216 210 206 203 202 204 208 211 213 217 222 228 233 236 239 242 243 240 227 204 190 191 202 209 216 220 220 218 219 223 225 225 222 218 212 208 208 209 210 212 212 213 213 212 211 211 212 213 214 215 214 213 210 207 203 200 200 199 197 190 185 183 183 185 188 190 189 185 182 180 179 179 179 181 183 184 185 186
107 152 165 172 196 220 241 245 234 220 210 205 203 205 210 215 219 220 219 223 229 235 239 241 240 236 224 202 185 180 188 197 206 211 210 208 208 211 217 218 218 217 214 210 208 209 210 211 212 213 212 211 209 208 209 210 211 211 210 208 205 201 197 195 195 193 189 183 180 180 181 183 186 186 183 181 178 177 177 177 179 181 182 184 185 185
72 73 80 49 355 268 267 251 241 234 226 215 209 209 212 217 221 220 218 220 227 234 240 242 240 235 225 203 183 173 174 183 192 196 196 194 195 199 204 206 208 209 209 206 206 206 207 209 211 212 212 210 207 205 204 204 204 203 202 200 198 195 192 190 188 186 182 179 178 179 180 180 179 179 177 176 176 176 176 177 179 180 182 183 183 184
65 68 82 95 62 339 303 249 241 239 236 226 219 216 217 219 220 221 219 220 226 234 238 239 238 233 224 206 185 172 165 170 175 178 179 177 178 182 187 190 194 198 200 200 200 201 203 204 206 208 208 204 200 199 198 196 195 194 192 191 190 189 188 186 183 180 177 177 178 179 177 175 173 172 172 172 173 175 176 177 178 179 180 180 181 180
62 63 70 84 76 33 323 257 245 241 237 231 225 222 220 219 219 219 219 219 222 229 236 239 237 231 223 209 190 177 169 175 175 171 167 158 156 161 168 174 180 186 190 191 191 192 194 196 198 199 200 197 194 193 191 188 187 186 184 183 183 183 184 182 180 177 174 174 174 172 171 169 169 169 169 170 172 173 175 175 176 176 175 176 176 175
67 64 64 64 57 36 322 259 246 241 238 234 229 225 222 220 219 219 219 219 218 221 227 235 236 233 225 212 194 182 178 183 184 176 163 144 138 144 154 161 167 172 176 179 180 180 181 181 181 183 185 186 187 186 183 180 178 177 176 176 176 176 175 174 172 171 170 169 167 166 166 166 166 167 168 168 169 170 170 170 169 169 169 170 170 171
68 62 53 43 30 12 334 292 264 250 244 239 236 232 227 224 222 221 221 221 220 219 222 230 234 233 226 213 195 183 181 184 182 170 153 136 130 134 142 148 152 154 158 164 168 169 168 165 164 166 170 176 179 178 174 171 170 168 168 167 168 167 165 165 164 164 164 164 164 164 164 165 165 166 167 167 168 168 167 167 167 167 167 169 170 171
69 66 55 38 13 343 317 306 285 266 253 247 243 239 234 229 225 223 224 224 222 220 219 223 226 227 223 213 195 182 179 183 181 168 148 131 125 127 132 138 139 139 142 150 157 160 159 155 153 155 160 166 170 170 166 163 161 160 160 159 159 159 159 159 160 160 161 161 162 163 164 165 165 166 166 168 168 168 169 168 169 169 170 171 172 173
90 96 98 88 355 301 289 286 279 270 260 255 249 244 240 234 230 226 224 222 220 217 215 216 219 221 220 212 197 182 176 180 182 174 155 137 127 124 126 131 132 132 133 139 146 150 150 146 146 148 151 155 159 161 160 158 157 156 156 155 156 156 157 158 158 159 160 161 162 162 163 164 165 165 166 167 168 168 169 169 169 169 169 170 170 170
116 140 158 174 203 248 270 275 273 268 263 258 253 249 244 238 233 229 224 220 217 214 211 211 213 214 215 211 198 182 171 174 180 180 170 150 135 127 125 129 131 130 129 131 136 140 141 140 141 143 144 147 151 154 155 156 156 156 156 156 156 157 157 158 158 159 160 160 161 162 163 163 164 164 165 166 166 166 166 166 167 167 166 166 165 163
116 152 176 190 205 225 248 259 266 267 263 258 254 249 244 238 232 227 223 219 216 212 208 208 208 207 206 204 197 182 166 165 172 177 175 162 145 133 128 130 132 130 128 127 130 134 136 137 138 140 142 144 147 149 151 153 154 155 156 157 157 158 158 159 159 160 160 160 161 162 163 163 164 164 165 165 165 164 164 164 164 164 164 163 162 160
101 142 180 190 199 214 227 235 240 248 252 249 247 242 237 231 223 218 217 216 213 210 206 206 205 202 199 197 194 185 169 162 164 167 170 166 156 143 134 132 131 130 127 124 125 129 132 135 138 141 143 145 147 148 149 150 152 153 154 156 157 157 158 159 159 160 160 160 161 162 163 164 164 164 164 164 164 164 165 165 166 166 166 165 164 163
91 112 138 158 173 185 192 193 188 183 196 217 225 227 225 221 216 213 212 211 209 205 201 202 202 199 194 192 191 188 179 165 160 162 164 165 161 153 144 136 132 131 129 124 121 120 124 131 138 142 145 147 148 149 149 149 150 150 151 152 153 154 155 157 157 158 159 160 161 162 163 164 165 165 166 166 167 168 169 170 171 171 170 169 168 166
76 85 96 107 121 138 151 155 152 151 159 177 196 206 210 211 210 209 208 206 203 199 195 197 198 196 191 187 186 187 190 173 160 159 161 163 163 162 157 147 140 136 136 131 124 119 120 126 134 140 144 147 148 149 150 150 150 150 150 151 152 153 155 156 157 158 160 161 163 164 166 167 168 169 170 171 172 173 173 173 173 172 171 169 166 165
67 72 78 85 93 104 114 122 129 137 149 164 180 191 196 200 201 201 199 198 195 193 190 190 191 190 188 185 185 187 189 176 161 156 157 158 163 166 165 159 151 146 144 142 137 132 129 130 133 138 142 144 147 149 151 152 153 154 154 154 155 156 158 160 161 162 164 166 167 169 170 172 172 172 172 172 171 170 169 167 166 164 163 161 161 161
64 67 71 77 83 88 93 99 106 117 132 150 169 181 188 191 192 191 189 188 187 186 185 185 184 183 181 182 184 186 184 174 160 153 153 154 158 163 166 163 159 154 150 147 144 141 139 138 140 142 143 145 147 150 152 154 156 157 159 159 160 161 163 164 165 166 167 168 168 169 169 169 168 167 165 163 162 160 158 157 157 156 156 157 159 161
62 65 68 73 78 82 87 92 97 105 117 131 147 163 175 180 181 179 177 177 178 180 180 181 181 179 177 177 179 180 179 173 160 152 150 151 153 157 160 160 159 156 152 147 144 142 141 142 144 144 145 148 150 151 152 154 156 158 160 161 161 162 164 165 165 164 164 164 163 162 162 161 160 159 158 157 156 156 157 157 158 159 160 162 165 167
60 62 64 68 72 76 81 85 91 98 106 116 126 138 152 161 164 164 165 167 170 173 175 178 179 178 176 175 174 174 175 171 160 151 149 149 150 153 155 155 156 155 151 148 144 141 140 143 145 145 145 147 150 152 153 154 156 158 160 161 161 161 162 162 162 161 160 159 159 158 158 158 158 158 159 160 161 163 164 165 167 168 170 172 173 174
56 57 59 61 65 68 72 77 82 89 95 102 110 120 132 141 146 149 151 156 161 166 168 173 176 177 175 174 172 171 171 168 161 153 149 149 150 151 152 153 155 155 152 149 146 144 143 144 145 146 147 147 148 151 154 157 158 159 160 160 160 160 160 159 159 158 158 159 159 159 160 160 161 162 164 166 168 169 171 172 173 174 175 176 177 178
53 54 55 56 59 62 66 71 75 80 84 91 98 107 116 123 128 132 136 142 149 155 160 166 171 173 173 172 171 170 169 166 162 156 151 150 152 152 152 153 155 156 154 151 149 148 148 146 145 147 148 149 149 150 154 159 162 162 162 162 161 161 160 160 160 160 160 161 162 163 164 165 166 166 168 170 172 173 174 174 175 176 176 177 178 178
50 51 51 53 55 57 61 65 69 72 77 83 89 97 105 112 115 118 122 127 133 141 149 158 166 170 171 170 169 168 166 165 163 160 155 154 154 155 154 153 155 157 157 155 154 153 151 149 147 147 148 150 152 154 157 161 163 164 164 163 163 162 162 163 164 164 164 164 165 166 167 168 169 170 171 173 174 175 175 176 177 177 178 178 179 180
48 48 49 50 51 53 56 60 64 69 73 78 85 93 101 107 110 111 112 114 120 127 137 149 159 166 169 168 167 165 165 165 165 163 160 158 157 157 156 155 155 156 157 157 156 156 154 153 151 150 150 150 152 156 160 163 165 165 165 164 164 164 165 166 167 167 167 167 168 168 169 169 170 172 173 175 176 177 177 178 179 180 181 182 183 184
47 47 49 49 51 53 55 59 63 69 74 79 86 95 103 107 109 109 107 108 111 118 127 141 154 163 166 166 165 164 164 166 166 166 164 162 160 159 159 158 157 157 156 156 156 156 155 155 155 155 154 153 154 156 159 164 166 167 166 164 164 165 167 169 170 170 170 170 171 171 171 171 172 174 175 177 178 179 180 181 182 184 186 187 188 190
46 47 49 50 52 56 59 62 66 71 77 85 93 101 105 107 108 108 107 106 107 111 120 134 150 160 163 163 162 162 163 165 167 168 167 166 164 162 160 159 158 158 157 156 156 156 156 155 155 155 155 155 156 157 160 163 166 168 167 166 165 166 168 171 172 173 174 174 174 174 174 174 175 176 178 179 180 182 184 186 187 188 190 191 194 195
47 47 47 49 52 55 58 62 67 74 82 91 98 103 105 106 106 107 108 107 106 109 116 128 142 153 157 157 157 156 157 159 162 165 167 167 166 163 161 159 159 159 158 157 156 156 157 156 155 155 155 156 156 156 158 162 165 168 169 168 167 167 169 172 175 176 177 178 178 178 177 177 178 179 181 182 183 184 186 189 191 193 194 195 197 199
47 47 48 49 51 54 57 61 67 73 81 89 94 97 101 104 105 105 106 106 107 109 114 123 135 145 149 147 146 145 146 149 153 158 162 165 166 165 162 160 159 160 160 159 157 156 157 157 155 154 155 157 158 157 157 160 164 168 170 170 169 169 169 172 175 178 179 180 180 180 180 181 181 182 183 184 185 187 189 191 193 195 197 199 200 202
46 47 48 50 52 54 56 59 63 68 74 80 85 90 96 100 103 103 102 103 106 109 113 119 129 138 140 137 134 133 134 139 145 150 155 160 163 165 164 161 160 160 162 161 159 157 156 155 154 154 155 157 159 159 160 162 165 168 171 172 173 173 172 173 175 178 180 181 181 182 183 184 184 185 185 186 187 189 191 193 195 197 199 201 203 206
46 46 48 49 51 52 53 55 58 63 69 75 81 86 92 96 100 101 100 99 102 108 113 120 127 131 128 126 125 126 128 132 138 143 148 154 159 163 164 162 161 161 161 161 161 159 157 154 153 153 156 158 159 160 161 164 167 169 171 174 176 176 175 176 177 180 181 181 181 182 184 186 187 187 188 188 188 190 192 194 196 198 201 204 207 211
45 45 47 48 49 50 52 54 56 60 66 71 77 83 89 94 98 101 100 98 99 102 110 121 128 128 124 122 122 122 123 126 130 135 141 147 153 158 161 162 162 161 160 160 161 161 161 158 156 156 157 159 160 161 163 166 169 171 173 176 177 178 177 177 178 180 181 182 182 183 184 186 188 189 189 189 190 191 193 195 198 200 204 208 211 215
44 45 46 47 48 49 51 53 55 58 63 67 73 80 87 93 97 99 100 99 98 100 106 117 124 126 125 124 124 123 123 122 124 128 133 140 146 152 156 159 162 163 163 162 162 162 162 161 161 162 163 162 161 162 165 169 172 173 175 178 179 179 178 177 178 179 181 182 183 184 185 186 188 189 190 190 191 193 194 197 200 203 207 211 216 219
44 45 46 46 47 49 50 51 53 56 60 64 69 76 84 91 95 96 98 99 99 100 104 109 115 119 121 124 126 127 127 124 123 125 128 133 140 146 151 156 159 163 165 166 165 164 163 163 163 165 167 167 166 165 168 171 173 175 177 179 181 181 180 179 179 179 181 182 184 185 186 187 189 190 191 192 193 195 196 199 202 206 210 214 218 221
45 45 46 47 47 48 48 50 52 54 57 61 66 72 79 88 93 96 97 99 100 101 102 104 107 111 114 117 122 127 130 130 129 128 129 131 136 142 148 154 158 161 163 165 167 167 166 165 164 165 167 170 169 169 170 173 175 177 178 180 181 183 182 182 181 181 182 183 185 186 188 189 191 192 194 195 196 197 199 201 204 208 211 215 218 221
46 47 47 48 48 48 48 49 51 53 55 59 63 68 75 83 90 95 98 100 100 100 101 102 105 106 108 112 117 123 127 130 132 132 131 132 135 140 145 152 157 159 160 161 163 164 163 162 162 163 165 168 170 171 171 173 175 177 177 178 181 183 183 183 183 183 184 185 187 188 189 190 191 193 196 198 200 201 202 204 206 209 212 216 218 220
47 48 48 49 49 49 50 50 51 53 55 57 61 66 71 78 85 91 96 98 99 99 100 102 104 104 105 108 113 118 124 128 130 131 132 134 137 140 144 150 155 158 157 156 156 157 157 154 152 153 157 163 167 171 172 173 175 177 177 178 180 183 184 184 184 185 186 187 188 190 191 191 192 193 196 199 201 203 205 207 209 211 213 215 218 220
Height
1405 1406 1406 1407 1407 1407 1406 1406 1406 1406 1405 1405 1406 1407 1407 1408 1409 1410 1412 1413 1414 1416 1417 1419 1420 1421 1423 1424 1426 1427 1428 1430 1431 1432 1433 1435 1435 1436 1438 1439 1440 1442 1443 1445 1447 1449 1450 1452 1454 1456 1458 1460 1462 1464 1466 1468 1470 1472 1474 1475 1476 1478 1480 1481 1482 1484 1486 1488 1489 1491 1493 1495 1496 1498 1500 1502 1504 1506 1508 1509 1511 1512 1514 1515 1516 1518
1404 1404 1405 1405 1406 1406 1405 1405 1405 1405 1405 1405 1405 1405 1406 1407 1408 1409 1410 1412 1413 1414 1416 1417 1418 1420 1420 1422 1423 1425 1426 1427 1429 1430 1431 1433 1434 1435 1436 1437 1438 1440 1441 1443 1445 1447 1449 1450 1452 1454 1456 1458 1460 1462 1464 1466 1468 1470 1472 1474 1475 1476 1478 1480 1481 1482 1484 1486 1488 1489 1491 1493 1495 1496 1498 1500 1503 1504 1506 1508 1509 1510 1512 1513 1515 1517
1402 1402 1402 1403 1404 1404 1403 1403 1404 1404 1404 1404 1404 1405 1405 1406 1407 1408 1410 1410 1412 1413 1414 1415 1416 1418 1419 1420 1421 1423 1424 1425 1426 1428 1429 1431 1432 1433 1434 1435 1436 1438 1440 1441 1443 1445 1447 1449 1450 1452 1454 1456 1458 1460 1462 1464 1466 1468 1470 1472 1474 1475 1476 1478 1480 1481 1483 1485 1487 1488 1490 1491 1493 1495 1497 1499 1501 1503 1505 1506 1508 1509 1510 1512 1514 1516
1401 1401 1400 1400 1401 1401 1401 1401 1402 1402 1403 1403 1403 1403 1404 1405 1406 1407 1408 1409 1410 1411 1412 1414 1415 1416 1417 1418 1420 1421 1422 1423 1424 1425 1427 1429 1430 1431 1432 1433 1435 1436 1438 1440 1441 1443 1445 1447 1449 1450 1452 1454 1456 1459 1460 1463 1465 1466 1468 1470 1472 1473 1475 1477 1478 1480 1481 1484 1485 1487 1488 1490 1492 1494 1496 1498 1499 1501 1503 1504 1506 1508 1509 1511 1513 1515
1400 1400 1399 1399 1399 1399 1399 1400 1400 1401 1401 1401 1401 1402 1403 1404 1405 1406 1407 1408 1409 1410 1411 1412 1413 1414 1415 1416 1418 1419 1420 1420 1422 1423 1425 1426 1428 1429 1430 1431 1433 1434 1436 1438 1439 1441 1443 1445 1446 1448 1450 1452 1455 1457 1459 1461 1463 1465 1467 1468 1470 1471 1474 1475 1477 1478 1480 1483 1485 1486 1487 1489 1491 1492 1494 1496 1497 1499 1501 1503 1505 1507 1508 1510 1512 1515
1398 1398 1398 1399 1398 1397 1397 1398 1399 1399 1400 1400 1400 1401 1402 1403 1404 1405 1406 1406 1407 1408 1409 1410 1411 1412 1413 1414 1415 1416 1417 1418 1419 1420 1422 1424 1425 1427 1428 1430 1431 1432 1434 1436 1437 1439 1441 1443 1445 1447 1449 1450 1453 1455 1457 1459 1461 1463 1465 1466 1468 1470 1472 1474 1475 1476 1478 1481 1484 1485 1487 1488 1490 1491 1492 1494 1496 1498 1500 1502 1504 1506 1507 1509 1512 1514
1397 1397 1397 1397 1397 1396 1397 1397 1398 1398 1399 1399 1400 1401 1402 1403 1404 1404 1404 1405 1405 1406 1407 1408 1409 1410 1411 1412 1413 1414 1415 1416 1417 1418 1419 1421 1423 1424 1426 1427 1429 1430 1432 1434 1435 1437 1439 1441 1443 1445 1447 1449 1451 1453 1455 1457 1459 1461 1463 1465 1466 1468 1470 1472 1474 1475 1477 1479 1481 1484 1485 1486 1488 1489 1491 1493 1495 1497 1499 1501 1503 1505 1506 1509 1511 1513
1397 1396 1396 1396 1395 1395 1396 1396 1397 1398 1399 1399 1400 1401 1402 1403 1403 1403 1403 1403 1404 1404 1405 1406 1406 1407 1409 1410 1410 1411 1413 1414 1415 1415 1417 1418 1420 1422 1424 1425 1427 1429 1430 1432 1434 1435 1437 1439 1441 1443 1445 1447 1449 1451 1453 1455 1457 1459 1461 1462 1464 1466 1468 1470 1472 1473 1475 1477 1480 1482 1483 1484 1485 1487 1489 1491 1494 1496 1498 1500 1501 1503 1505 1508 1510 1512
1396 1395 1395 1395 1395 1395 1395 1395 1395 1397 1398 1400 1400 1401 1402 1402 1401 1401 1401 1402 1402 1403 1403 1404 1404 1405 1406 1408 1409 1409 1410 1411 1412 1413 1415 1416 1418 1420 1421 1423 1425 1427 1428 1430 1432 1434 1435 1437 1439 1441 1443 1445 1446 1448 1450 1453 1455 1457 1459 1460 1462 1464 1466 1469 1470 1472 1474 1476 1478 1480 1481 1483 1485 1486 1487 1490 1492 1495 1497 1499 1500 1502 1505 1507 1509 1510
1395 1395 1394 1394 1394 1394 1394 1393 1394 1396 1398 1399 1400 1400 1400 1400 1400 1400 1400 1400 1400 1401 1402 1403 1403 1404 1405 1406 1407 1408 1408 1409 1410 1411 1412 1414 1416 1418 1420 1421 1423 1425 1427 1428 1430 1432 1434 1435 1437 1439 1441 1443 1444 1446 1448 1451 1453 1455 1457 1459 1460 1462 1465 1467 1469 1471 1473 1475 1477 1478 1480 1483 1484 1485 1486 1488 1490 1493 1495 1497 1499 1501 1503 1505 1507 1509
1393 1393 1393 1393 1393 1392 1392 1392 1393 1395 1397 1397 1398 1398 1398 1398 1398 1398 1398 1398 1399 1400 1401 1401 1402 1403 1404 1405 1405 1406 1406 1407 1408 1409 1410 1412 1414 1416 1418 1420 1422 1424 1425 1427 1429 1430 1432 1433 1435 1437 1439 1440 1442 1444 1446 1449 1451 1453 1455 1457 1459 1460 1463 1465 1467 1470 1471 1473 1475 1477 1480 1481 1483 1484 1485 1486 1489 1491 1494 1496 1498 1500 1501 1503 1505 1507
1392 1392 1391 1391 1391 1391 1391 1390 1391 1393 1395 1395 1395 1395 1395 1395 1395 1396 1396 1396 1397 1399 1400 1400 1401 1402 1403 1403 1404 1404 1405 1405 1406 1407 1408 1410 1412 1414 1416 1418 1420 1422 1424 1425 1427 1428 1430 1431 1433 1435 1436 1438 1440 1442 1444 1446 1449 1451 1453 1455 1457 1459 1461 1464 1465 1468 1470 1471 1473 1476 1479 1480 1481 1482 1483 1485 1487 1489 1492 1494 1496 1498 1500 1502 1504 1506
1391 1391 1390 1390 1390 1390 1390 1390 1390 1391 1392 1393 1393 1393 1393 1393 1394 1394 1395 1395 1396 1397 1398 1399 1400 1400 1402 1402 1403 1403 1403 1404 1405 1405 1407 1408 1410 1412 1414 1416 1418 1420 1422 1423 1425 1426 1428 1430 1431 1433 1435 1436 1438 1440 1442 1445 1447 1449 1451 1453 1455 1458 1460 1462 1464 1466 1468 1470 1472 1475 1478 1479 1480 1481 1482 1483 1485 1487 1490 1492 1495 1497 1499 1501 1503 1505
1389 1389 1389 1389 1389 1389 1390 1389 1390 1390 1390 1391 1391 1392 1392 1392 1392 1393 1393 1394 1395 1396 1398 1398 1399 1400 1401 1402 1402 1401 1401 1402 1403 1404 1405 1407 1408 1410 1411 1414 1415 1417 1420 1421 1423 1424 1425 1427 1429 1431 1432 1434 1436 1438 1440 1443 1445 1447 1450 1452 1454 1456 1458 1460 1462 1464 1465 1468 1471 1474 1476 1478 1479 1479 1480 1481 1483 1485 1488 1491 1493 1496 1498 1500 1502 1505
1387 1387 1387 1387 1387 1387 1387 1387 1387 1388 1389 1389 1389 1390 1390 1391 1391 1392 1393 1393 1394 1395 1397 1398 1398 1399 1400 1400 1400 1400 1400 1401 1402 1403 1404 1405 1406 1408 1410 1411 1413 1415 1417 1419 1420 1422 1423 1425 1427 1428 1430 1432 1434 1436 1439 1441 1443 1446 1448 1450 1453 1455 1457 1459 1460 1462 1464 1467 1470 1472 1474 1475 1477 1478 1479 1480 1482 1484 1486 1489 1492 1495 1497 1499 1501 1504
1385 1385 1386 1385 1385 1384 1384 1385 1385 1385 1385 1386 1387 1389 1390 1390 1391 1392 1392 1393 1394 1395 1396 1397 1398 1398 1399 1400 1399 1399 1399 1400 1400 1402 1403 1404 1405 1406 1408 1410 1411 1414 1415 1417 1418 1420 1422 1423 1425 1426 1428 1430 1432 1435 1437 1439 1442 1444 1446 1449 1451 1453 1455 1457 1458 1460 1462 1465 1468 1470 1472 1473 1474 1476 1478 1480 1481 1483 1485 1488 1490 1493 1496 1499 1501 1503
1384 1384 1384 1384 1384 1384 1384 1384 1384 1384 1384 1385 1386 1387 1388 1388 1390 1391 1392 1393 1394 1395 1397 1397 1398 1398 1399 1399 1399 1398 1398 1399 1399 1400 1402 1403 1404 1405 1406 1408 1410 1412 1414 1415 1416 1418 1420 1421 1423 1424 1426 1428 1431 1433 1435 1438 1440 1443 1445 1447 1450 1451 1453 1455 1456 1459 1462 1465 1467 1468 1470 1471 1473 1475 1478 1479 1481 1483 1485 1487 1489 1492 1495 1498 1500 1502
1383 1383 1383 1383 1383 1383 1383 1383 1383 1383 1383 1383 1384 1385 1386 1387 1389 1390 1391 1393 1394 1395 1396 1397 1397 1397 1398 1398 1397 1397 1398 1398 1398 1400 1401 1403 1403 1404 1405 1407 1408 1410 1412 1413 1415 1416 1418 1419 1421 1423 1425 1427 1430 1432 1434 1437 1439 1442 1444 1446 1448 1450 1451 1453 1455 1458 1461 1463 1465 1467 1468 1470 1472 1475 1477 1479 1480 1483 1485 1487 1489 1491 1494 1497 1499 1501
1382 1382 1382 1382 1382 1382 1382 1381 1381 1381 1381 1381 1382 1384 1385 1387 1388 1389 1390 1392 1393 1395 1395 1396 1396 1396 1397 1397 1397 1397 1397 1397 1397 1398 1400 1402 1403 1403 1404 1405 1407 1409 1410 1412 1414 1415 1417 1418 1420 1422 1424 1426 1429 1431 1433 1436 1438 1440 1443 1445 1446 1448 1450 1452 1454 1457 1460 1462 1464 1465 1467 1469 1471 1474 1477 1479 1480 1482 1484 1486 1489 1491 1494 1496 1499 1502
1381 1381 1381 1381 1381 1381 1380 1380 1380 1380 1380 1380 1381 1383 1384 1385 1387 1388 1390 1391 1392 1394 1395 1395 1395 1395 1396 1396 1397 1397 1397 1397 1397 1397 1399 1400 1401 1402 1403 1404 1405 1407 1409 1411 1413 1415 1416 1418 1420 1422 1424 1426 1428 1430 1432 1435 1437 1439 1441 1443 1445 1447 1449 1450 1453 1456 1458 1460 1462 1464 1466 1468 1470 1473 1476 1478 1480 1482 1484 1486 1489 1491 1495 1498 1500 1502
1381 1381 1381 1381 1380 1380 1380 1379 1379 1379 1379 1380 1381 1382 1383 1384 1386 1387 1389 1390 1392 1393 1393 1393 1393 1394 1395 1396 1397 1397 1397 1396 1396 1396 1397 1399 1400 1400 1401 1403 1404 1405 1407 1410 1412 1414 1415 1417 1419 1422 1424 1426 1428 1430 1432 1434 1436 1438 1440 1442 1445 1446 1448 1450 1452 1455 1457 1459 1461 1463 1465 1468 1470 1472 1475 1477 1480 1482 1485 1487 1490 1493 1496 1499 1501 1503
1381 1381 1380 1380 1380 1380 1380 1379 1378 1378 1379 1379 1380 1380 1381 1383 1385 1386 1387 1389 1391 1392 1392 1392 1392 1393 1395 1396 1397 1398 1397 1397 1396 1396 1396 1397 1399 1400 1400 1401 1402 1404 1405 1408 1411 1413 1415 1417 1419 1422 1424 1425 1428 1430 1431 1433 1435 1437 1439 1442 1444 1446 1448 1450 1452 1455 1457 1459 1461 1463 1465 1468 1470 1472 1475 1478 1481 1484 1487 1489 1492 1494 1497 1499 1501 1504
1381 1380 1380 1380 1380 1379 1379 1378 1378 1378 1378 1378 1378 1379 1380 1382 1383 1385 1386 1388 1389 1390 1390 1391 1391 1392 1394 1396 1397 1398 1398 1398 1398 1397 1397 1397 1399 1400 1400 1401 1401 1402 1404 1407 1410 1412 1414 1416 1419 1422 1424 1425 1427 1429 1430 1432 1434 1436 1438 1441 1443 1445 1448 1450 1452 1454 1456 1459 1461 1463 1466 1468 1470 1473 1476 1479 1482 1485 1488 1491 1493 1495 1497 1499 1501 1503
1380 1380 1380 1379 1379 1378 1378 1377 1377 1376 1376 1377 1377 1378 1380 1381 1382 1384 1386 1387 1388 1389 1389 1390 1391 1392 1394 1395 1397 1397 1398 1398 1398 1398 1398 1398 1399 1400 1400 1400 1401 1402 1404 1406 1409 1411 1413 1416 1419 1421 1424 1425 1426 1428 1430 1431 1434 1436 1438 1440 1442 1445 1447 1450 1452 1454 1456 1459 1461 1464 1466 1469 1472 1474 1476 1479 1481 1485 1487 1490 1492 1495 1496 1499 1501 1503
1380 1380 1380 1379 1378 1378 1377 1376 1376 1375 1375 1375 1376 1377 1379 1380 1381 1383 1385 1386 1387 1388 1389 1389 1390 1391 1392 1394 1396 1396 1396 1398 1398 1399 1399 1399 1400 1401 1401 1401 1400 1401 1404 1406 1408 1410 1412 1415 1418 1420 1423 1425 1427 1428 1430 1431 1434 1436 1438 1440 1442 1445 1448 1450 1452 1454 1456 1459 1462 1464 1467 1470 1472 1475 1477 1479 1481 1483 1485 1488 1490 1493 1495 1497 1500 1502
1381 1380 1380 1379 1379 1378 1377 1376 1375 1375 1375 1375 1375 1376 1377 1379 1380 1382 1383 1385 1386 1387 1387 1388 1389 1390 1391 1394 1395 1395 1396 1397 1398 1399 1400 1400 1401 1402 1403 1402 1401 1401 1403 1406 1408 1409 1411 1414 1417 1419 1421 1425 1427 1429 1430 1432 1434 1436 1438 1440 1442 1445 1448 1450 1453 1455 1457 1460 1462 1465 1467 1470 1472 1475 1477 1479 1481 1484 1486 1489 1491 1494 1495 1498 1501 1503
1380 1380 1380 1379 1379 1378 1377 1376 1375 1375 1375 1375 1375 1376 1377 1378 1379 1380 1382 1383 1384 1385 1386 1387 1388 1389 1391 1393 1394 1395 1395 1396 1398 1400 1400 1400 1401 1402 1404 1403 1402 1401 1403 1406 1408 1410 1411 1414 1416 1418 1420 1423 1426 1429 1430 1432 1434 1436 1438 1440 1443 1445 1448 1451 1453 1455 1458 1460 1463 1465 1468 1470 1473 1475 1478 1481 1483 1485 1488 1490 1492 1494 1496 1498 1500 1503
1380 1379 1379 1378 1378 1377 1377 1376 1375 1375 1375 1375 1375 1375 1376 1377 1378 1379 1380 1381 1383 1384 1385 1386 1387 1388 1390 1392 1393 1394 1394 1395 1397 1399 1401 1401 1401 1403 1404 1404 1403 1402 1403 1406 1409 1411 1413 1416 1418 1419 1420 1423 1425 1428 1431 1433 1435 1437 1439 1441 1444 1446 1449 1452 1454 1457 1459 1461 1464 1467 1469 1472 1474 1476 1479 1481 1484 1485 1487 1490 1491 1493 1495 1497 1499 1501
1379 1379 1378 1378 1377 1377 1376 1376 1375 1375 1375 1375 1375 1375 1375 1375 1376 1377 1379 1380 1382 1383 1384 1385 1386 1387 1388 1390 1392 1393 1393 1394 1395 1397 1400 1400 1402 1403 1404 1404 1403 1402 1402 1405 1408 1411 1415 1418 1420 1421 1423 1425 1427 1430 1432 1434 1436 1438 1441 1443 1445 1448 1451 1454 1456 1459 1461 1464 1466 1468 1471 1473 1475 1477 1479 1481 1483 1485 1487 1490 1491 1493 1495 1497 1499 1501
1379 1379 1378 1377 1377 1376 1376 1375 1375 1375 1375 1374 1374 1374 1374 1374 1375 1376 1378 1380 1381 1382 1382 1385 1385 1386 1386 1388 1391 1393 1393 1393 1393 1395 1397 1399 1401 1402 1403 1404 1403 1403 1402 1403 1406 1411 1416 1420 1423 1425 1426 1428 1430 1432 1434 1436 1438 1440 1443 1445 1448 1451 1453 1456 1458 1461 1463 1465 1468 1470 1472 1474 1476 1478 1480 1482 1484 1486 1489 1490 1492 1494 1496 1498 1500 1501
1380 1379 1378 1377 1377 1376 1376 1375 1375 1374 1374 1374 1374 1373 1373 1374 1374 1375 1377 1378 1379 1380 1381 1383 1385 1385 1385 1386 1389 1392 1392 1392 1392 1393 1394 1397 1399 1400 1402 1403 1403 1404 1403 1403 1405 1410 1417 1423 1427 1429 1430 1431 1433 1435 1436 1438 1440 1442 1444 1446 1449 1452 1455 1457 1460 1462 1464 1466 1469 1471 1473 1475 1477 1479 1481 1483 1485 1488 1490 1492 1493 1495 1497 1499 1500 1502
1380 1379 1378 1378 1377 1376 1375 1375 1374 1374 1373 1373 1373 1373 1373 1373 1374 1374 1375 1376 1377 1378 1380 1382 1384 1384 1384 1385 1387 1389 1391 1391 1391 1391 1392 1395 1397 1398 1400 1401 1403 1405 1406 1405 1405 1407 1414 1421 1427 1431 1433 1435 1436 1438 1439 1440 1442 1444 1445 1447 1450 1453 1455 1457 1460 1462 1464 1466 1469 1471 1474 1475 1478 1480 1482 1484 1486 1488 1490 1492 1494 1495 1497 1498 1500 1502
1381 1380 1379 1378 1377 1376 1375 1375 1374 1373 1373 1372 1372 1372 1372 1373 1373 1373 1374 1375 1376 1377 1379 1380 1382 1382 1383 1383 1385 1388 1391 1391 1390 1390 1391 1393 1395 1397 1399 1400 1403 1405 1408 1409 1408 1409 1412 1418 1425 1430 1434 1436 1438 1439 1441 1442 1444 1445 1446 1447 1450 1452 1455 1457 1459 1461 1464 1466 1469 1472 1474 1476 1478 1480 1482 1485 1486 1488 1490 1492 1493 1495 1496 1498 1500 1502
1382 1381 1380 1379 1378 1376 1376 1375 1374 1373 1373 1372 1372 1372 1372 1373 1373 1373 1373 1374 1375 1376 1377 1379 1380 1381 1382 1383 1384 1387 1391 1392 1391 1390 1390 1392 1394 1395 1396 1399 1401 1404 1407 1410 1411 1413 1415 1418 1422 1428 1433 1437 1439 1440 1441 1443 1444 1445 1446 1447 1449 1451 1454 1456 1458 1461 1463 1466 1469 1471 1474 1476 1478 1480 1483 1485 1487 1489 1490 1492 1494 1495 1497 1499 1500 1502
1383 1381 1380 1379 1378 1377 1376 1375 1374 1373 1373 1373 1373 1373 1373 1373 1372 1372 1372 1373 1374 1375 1376 1378 1380 1381 1382 1383 1384 1386 1390 1392 1391 1390 1390 1391 1393 1394 1395 1397 1399 1401 1405 1408 1411 1414 1418 1421 1423 1425 1430 1435 1439 1440 1442 1443 1444 1445 1446 1447 1449 1451 1453 1456 1458 1460 1463 1465 1468 1471 1473 1476 1478 1480 1483 1485 1487 1489 1491 1492 1494 1496 1498 1500 1502 1504
1384 1382 1381 1380 1379 1378 1377 1376 1375 1374 1374 1373 1373 1373 1373 1373 1373 1372 1372 1372 1373 1374 1375 1377 1379 1380 1382 1383 1384 1386 1389 1391 1391 1390 1390 1390 1392 1393 1394 1395 1397 1400 1402 1405 1409 1412 1416 1420 1424 1426 1428 1432 1435 1439 1443 1445 1445 1446 1447 1449 1450 1452 1455 1457 1459 1461 1464 1466 1469 1471 1474 1476 1478 1480 1483 1485 1487 1489 1491 1493 1495 1497 1499 1500 1502 1504
1385 1384 1382 1381 1380 1379 1378 1377 1376 1375 1375 1374 1374 1374 1374 1374 1373 1372 1372 1372 1373 1374 1375 1376 1378 1380 1381 1382 1384 1385 1389 1391 1392 1391 1390 1390 1391 1391 1392 1394 1396 1398 1400 1403 1406 1409 1412 1418 1423 1426 1428 1430 1432 1436 1441 1445 1447 1448 1449 1451 1452 1454 1456 1458 1460 1463 1465 1467 1470 1472 1475 1477 1479 1480 1483 1485 1487 1489 1491 1493 1495 1496 1498 1500 1501 1503
1386 1385 1384 1383 1381 1380 1379 1378 1378 1377 1377 1376 1376 1375 1375 1375 1374 1374 1373 1372 1373 1374 1375 1376 1377 1379 1380 1382 1383 1385 1388 1391 1392 1393 1392 1391 1390 1390 1390 1392 1396 1398 1399 1400 1403 1406 1409 1413 1419 1424 1428 1430 1432 1435 1438 1442 1445 1448 1450 1452 1453 1454 1456 1459 1461 1464 1465 1468 1470 1473 1475 1477 1479 1481 1483 1485 1487 1489 1491 1492 1494 1496 1497 1499 1500 1502
1388 1386 1385 1384 1383 1382 1381 1380 1380 1379 1379 1379 1378 1377 1376 1376 1376 1375 1374 1373 1373 1374 1375 1377 1378 1379 1380 1381 1383 1385 1387 1390 1391 1393 1393 1392 1392 1391 1390 1391 1394 1398 1400 1402 1404 1405 1407 1410 1414 1419 1424 1429 1433 1436 1439 1441 1444 1446 1449 1451 1453 1455 1457 1460 1462 1464 1466 1468 1470 1473 1475 1477 1479 1481 1483 1485 1487 1489 1490 1492 1494 1495 1497 1499 1500 1502
1389 1388 1387 1386 1385 1384 1383 1383 1382 1381 1381 1380 1380 1380 1379 1378 1377 1376 1376 1375 1375 1375 1376 1378 1378 1379 1380 1381 1383 1385 1387 1389 1391 1392 1393 1394 1394 1393 1392 1392 1393 1396 1400 1403 1406 1408 1409 1411 1413 1416 1420 1424 1429 1434 1439 1442 1444 1445 1446 1448 1451 1455 1457 1460 1462 1465 1467 1469 1471 1473 1475 1477 1479 1481 1483 1485 1487 1489 1491 1492 1494 1495 1497 1499 1500 1501
1391 1390 1389 1388 1387 1386 1385 1385 1384 1383 1382 1382 1381 1381 1380 1379 1378 1378 1378 1377 1376 1376 1377 1379 1379 1380 1380 1382 1383 1385 1386 1388 1390 1392 1394 1395 1396 1395 1395 1394 1394 1396 1399 1403 1406 1408 1410 1412 1414 1417 1421 1424 1427 1432 1436 1441 1444 1445 1446 1446 1449 1452 1456 1459 1462 1465 1467 1469 1471 1473 1475 1477 1479 1481 1483 1485 1487 1489 1490 1492 1494 1495 1497 1498 1500 1501
1393 1392 1391 1390 1389 1388 1387 1386 1385 1385 1384 1383 1382 1382 1382 1381 1380 1380 1379 1379 1379 1378 1379 1380 1380 1380 1381 1383 1384 1385 1386 1388 1390 1392 1393 1395 1396 1397 1397 1396 1396 1397 1399 1401 1405 1409 1411 1412 1415 1418 1421 1424 1427 1431 1436 1440 1444 1445 1446 1446 1448 1451 1455 1459 1462 1464 1466 1469 1471 1473 1475 1476 1478 1480 1482 1484 1486 1488 1490 1491 1493 1495 1496 1498 1499 1500
1395 1394 1393 1391 1390 1390 1389 1388 1386 1385 1385 1384 1383 1383 1384 1384 1383 1382 1380 1380 1380 1380 1380 1381 1381 1382 1382 1384 1385 1386 1387 1388 1390 1392 1394 1395 1396 1397 1398 1398 1398 1398 1399 1400 1404 1408 1411 1413 1415 1418 1421 1424 1426 1430 1434 1439 1442 1445 1446 1447 1448 1450 1454 1457 1460 1463 1466 1468 1470 1472 1474 1476 1478 1480 1481 1483 1485 1487 1489 1491 1493 1495 1496 1497 1498 1499
1397 1396 1395 1393 1392 1391 1390 1388 1387 1386 1386 1385 1385 1385 1385 1385 1385 1384 1382 1381 1381 1381 1381 1382 1383 1383 1384 1385 1386 1387 1388 1389 1390 1392 1395 1396 1398 1399 1400 1400 1400 1400 1400 1400 1402 1406 1410 1414 1417 1420 1423 1425 1428 1430 1433 1437 1441 1444 1447 1449 1450 1451 1453 1456 1459 1462 1465 1467 1470 1472 1474 1476 1478 1479 1481 1483 1485 1487 1489 1490 1492 1494 1495 1496 1497 1498
1399 1397 1396 1395 1393 1392 1390 1390 1389 1388 1388 1387 1387 1386 1386 1386 1386 1386 1385 1383 1382 1382 1382 1383 1384 1385 1386 1387 1388 1389 1390 1390 1392 1394 1395 1398 1400 1401 1402 1402 1403 1403 1403 1404 1405 1407 1410 1414 1418 1421 1424 1427 1430 1432 1435 1438 1441 1444 1447 1450 1451 1453 1454 1457 1459 1462 1464 1467 1469 1471 1474 1475 1477 1479 1481 1483 1485 1486 1488 1490 1491 1493 1494 1495 1496 1497
1400 1399 1398 1396 1395 1393 1392 1392 1391 1390 1390 1389 1389 1388 1388 1388 1388 1387 1387 1385 1384 1383 1384 1384 1385 1385 1387 1390 1391 1392 1392 1393 1394 1395 1397 1399 1401 1403 1404 1404 1405 1405 1406 1408 1410 1412 1414 1416 1419 1423 1426 1429 1432 1435 1437 1439 1441 1444 1447 1449 1451 1453 1455 1458 1460 1462 1465 1467 1469 1471 1473 1475 1477 1479 1480 1482 1484 1486 1487 1489 1491 1492 1493 1494 1495 1496
1402 1401 1399 1398 1397 1396 1395 1394 1393 1392 1392 1391 1390 1390 1390 1390 1389 1389 1388 1388 1386 1385 1385 1385 1386 1387 1389 1391 1393 1394 1395 1395 1396 1397 1399 1400 1402 1403 1404 1405 1406 1407 1408 1410 1412 1415 1418 1421 1423 1425 1428 1430 1433 1436 1438 1440 1442 1444 1447 1450 1452 1454 1456 1458 1460 1463 1465 1467 1469 1471 1473 1475 1476 1478 1480 1481 1483 1485 1487 1488 1490 1491 1492 1493 1494 1495
1404 1403 1401 1400 1400 1398 1397 1396 1395 1395 1394 1393 1393 1392 1392 1391 1391 1390 1390 1390 1389 1388 1388 1387 1387 1388 1390 1392 1394 1395 1397 1397 1398 1398 1400 1401 1403 1404 1405 1405 1406 1408 1409 1411 1414 1416 1420 1423 1426 1428 1430 1432 1434 1436 1439 1441 1443 1445 1447 1450 1452 1454 1456 1458 1461 1463 1465 1467 1469 1471 1472 1474 1476 1477 1479 1481 1483 1484 1486 1487 1489 1490 1491 1492 1493 1494
1406 1405 1404 1403 1402 1400 1400 1399 1398 1397 1396 1396 1395 1395 1394 1394 1393 1393 1392 1392 1391 1391 1390 1390 1390 1390 1391 1393 1395 1396 1398 1399 1399 1400 1401 1402 1404 1405 1406 1407 1407 1408 1410 1413 1415 1417 1420 1423 1426 1430 1432 1434 1435 1436 1439 1442 1444 1446 1448 1450 1453 1455 1457 1459 1461 1464 1465 1467 1469 1471 1473 1474 1476 1478 1479 1480 1482 1484 1485 1486 1488 1489 1490 1491 1492 1493
1408 1407 1406 1405 1404 1403 1402 1401 1400 1400 1399 1399 1398 1398 1397 1396 1395 1395 1394 1394 1393 1393 1393 1393 1393 1393 1393 1394 1395 1397 1398 1399 1400 1401 1402 1403 1404 1406 1407 1408 1409 1409 1411 1413 1416 1419 1421 1424 1427 1431 1434 1436 1438 1439 1440 1442 1445 1447 1450 1452 1454 1455 1458 1460 1462 1464 1465 1467 1469 1471 1472 1474 1476 1478 1479 1480 1482 1483 1484 1485 1487 1488 1489 1490 1491 1492
1410 1409 1408 1407 1406 1405 1404 1404 1403 1402 1401 1401 1401 1400 1400 1399 1398 1397 1396 1396 1395 1395 1395 1396 1396 1396 1396 1396 1396 1397 1399 1400 1400 1402 1403 1404 1405 1407 1408 1410 1410 1411 1412 1414 1417 1420 1422 1425 1429 1432 1435 1438 1440 1442 1443 1444 1446 1449 1451 1453 1455 1457 1459 1460 1462 1464 1465 1467 1469 1470 1472 1474 1475 1477 1478 1480 1481 1482 1483 1484 1485 1486 1487 1489 1490 1490